Location: ????????
(56.1167°N, 38.6333°E)
Time: 10:47:57
(UTC+00:00)

Cosmos 1346 Rocket - Pass Details

Date: 23 February 2026
Orbit: 476 x 485 km, 81.2° (Epoch: 11 March)

Event Time Altitude Azimuth Distance (km) Brightness Sun altitude
Rises 00:53:15 0° 352° (N) 2,571 6.5 -30.4°
Reaches altitude 10° 00:55:40 10° 7° (N) 1,687 5.7 -30.1°
Enters shadow 00:56:52 17° 21° (NNE) 1,324 5.3 -30.0°
Exits shadow 01:00:59 14° 110° (ESE) 1,428 5.3 -29.5°
Drops below altitude 10° 01:01:47 10° 119° (ESE) 1,678 5.6 -29.4°
Sets 01:04:10 0° 133° (SE) 2,554 6.4 -29.1°
